sat.trackr.live / text

‹ back to catalog

STARLINK-11405 [DTC]

NORAD 63008 · 2025-032D

PAYLOAD ACTIVE UNKNOWN

§ Identity

Operator
Country
US
Launch date
2025-02-15
Launch site
AFETR
Launch vehicle
Mass (kg)
RCS (m²)

Purposes: comms

External: N2YO · Heavens-Above · Gunter

§ Orbital elements

Epoch: 2026-09-21T19:07:26.228640Z

Period
91.66 min
Inclination
43.0008°
Eccentricity
0.0001560
Mean motion
15.70986003 rev/d
Perigee alt
355.0 km
Apogee alt
357.1 km
Semi-major
6,734.2 km
B*
1.0739e-3
RAAN
93.5155°
Arg perigee
261.4174°
Mean anomaly
98.6517°
Rev number
9,290

§ Raw data

STARLINK-11405 [DTC]1 63008U 25032D   26264.79683135  .00140564  00000+0  10739-2 0  99922 63008  43.0008  93.5155 0001560 261.4174  98.6517 15.70986003 92904

JSON: /api/v1/satellites/63008 · /tle

For live sub-satellite position, see the globe view (requires WebGL).

§ Visibility from observer

Set your observer location to see the next 7 days of passes ≥ 10°. The values pass through the URL so the page stays shareable.

No JS? Fill the form by hand. The geolocation button needs JavaScript.